NKS811 KFLL-KBOS

Flight info

Callsign NKS811
Flight time 2h 52m
Altitude 35000
Route FEALX2 ETECK GRUBR Y299 SEELO WAALT Q131 EARZZ JAMIE CONFR Q133 JFK ROBUC3
Aircraft A321/M-SDE3FGHIRWY/LB1

Departure

Time 2026-05-04 16:17
Airport Fort Lauderdale Hollywood International Airport (KFLL)

Arrival

Time 2026-05-04 19:09
Airport Boston Logan International Airport (KBOS)
Time Latitude Longitude Altitude Speed Heading
2026-05-04 15:35 26.06887 -80.14552 18 ft 0 kts 22°
2026-05-04 16:04 26.06882 -80.14554 17 ft 2 kts 22°
2026-05-04 16:05 26.06865 -80.14564 18 ft 3 kts 40°
2026-05-04 16:05 26.06852 -80.14580 17 ft 3 kts 70°
2026-05-04 16:05 26.06854 -80.14621 19 ft 3 kts 118°
2026-05-04 16:06 26.06865 -80.14639 20 ft 2 kts 133°
2026-05-04 16:06 26.06867 -80.14642 20 ft 0 kts 134°
2026-05-04 16:10 26.06844 -80.14616 17 ft 7 kts 135°
2026-05-04 16:11 26.06766 -80.14686 17 ft 6 kts 269°
2026-05-04 16:11 26.06766 -80.14731 18 ft 8 kts 271°
2026-05-04 16:12 26.06769 -80.15034 22 ft 15 kts 271°
2026-05-04 16:12 26.06696 -80.15243 26 ft 12 kts 270°
2026-05-04 16:13 26.06698 -80.15467 26 ft 13 kts 269°
2026-05-04 16:13 26.06697 -80.15644 23 ft 9 kts 270°
2026-05-04 16:14 26.06696 -80.15784 22 ft 9 kts 255°
2026-05-04 16:14 26.06603 -80.15808 20 ft 7 kts 146°
2026-05-04 16:15 26.06589 -80.15762 21 ft 0 kts 89°
2026-05-04 16:16 26.06603 -80.14043 57 ft 158 kts 88°
2026-05-04 16:17 26.06639 -80.11622 1395 ft 158 kts 83°
2026-05-04 16:18 26.06696 -80.07384 2229 ft 210 kts 84°
2026-05-04 16:18 26.06704 -80.05670 2415 ft 234 kts 84°
2026-05-04 16:19 26.07389 -79.99799 3820 ft 265 kts 51°
2026-05-04 16:19 26.09744 -79.96672 3936 ft 264 kts 46°
2026-05-04 16:20 26.13359 -79.91865 5565 ft 277 kts 48°
2026-05-04 16:20 26.15858 -79.88479 6811 ft 289 kts 49°
2026-05-04 16:21 26.19519 -79.82946 8724 ft 302 kts 52°
2026-05-04 16:22 26.21979 -79.79111 10030 ft 310 kts 52°
2026-05-04 16:22 26.25970 -79.72971 11026 ft 354 kts 51°
2026-05-04 16:23 26.30863 -79.66063 11976 ft 390 kts 42°
2026-05-04 16:24 26.38589 -79.57178 14072 ft 410 kts 41°
2026-05-04 16:25 26.42603 -79.52560 15044 ft 418 kts 41°
2026-05-04 16:26 26.50807 -79.43091 17074 ft 431 kts 42°
2026-05-04 16:26 26.57543 -79.36366 18404 ft 434 kts 26°
2026-05-04 16:27 26.62716 -79.32871 19247 ft 439 kts 26°
2026-05-04 16:28 26.70634 -79.27497 20559 ft 446 kts 26°
2026-05-04 16:28 26.78664 -79.22029 21823 ft 453 kts 25°
2026-05-04 16:29 26.89517 -79.14608 23384 ft 462 kts 25°
2026-05-04 16:30 26.97780 -79.08943 24375 ft 469 kts 25°
2026-05-04 16:31 27.03372 -79.05115 25012 ft 473 kts 25°
2026-05-04 16:31 27.11880 -78.99275 25961 ft 480 kts 25°
2026-05-04 16:32 27.20460 -78.93380 26854 ft 487 kts 25°
2026-05-04 16:33 27.26253 -78.89382 27412 ft 491 kts 25°
2026-05-04 16:33 27.32106 -78.85344 27988 ft 495 kts 25°
2026-05-04 16:34 27.38054 -78.81388 28542 ft 493 kts 18°
2026-05-04 16:34 27.41217 -78.79973 28818 ft 486 kts
2026-05-04 16:35 27.51007 -78.78156 29886 ft 474 kts 359°
2026-05-04 16:35 27.60798 -78.76725 30957 ft 471 kts 359°
2026-05-04 16:36 27.64049 -78.76247 31305 ft 470 kts 359°
2026-05-04 16:36 27.70471 -78.75302 31971 ft 467 kts 359°
2026-05-04 16:37 27.76914 -78.74351 32611 ft 465 kts 359°
2026-05-04 16:37 27.80124 -78.73880 32918 ft 465 kts 359°
2026-05-04 16:37 27.86491 -78.72948 33524 ft 463 kts 359°
2026-05-04 16:38 27.92876 -78.72015 34158 ft 461 kts 359°
2026-05-04 16:39 28.02422 -78.70592 34874 ft 461 kts 359°
2026-05-04 16:39 28.08766 -78.69649 35104 ft 461 kts 359°
2026-05-04 16:40 28.21492 -78.67785 35118 ft 461 kts 359°
2026-05-04 16:41 28.36357 -78.65575 35113 ft 461 kts 359°
2026-05-04 16:43 28.52260 -78.63210 35133 ft 460 kts 358°
2026-05-04 16:43 28.61735 -78.61807 35141 ft 459 kts 358°
2026-05-04 16:45 28.80780 -78.58954 35135 ft 456 kts 358°
2026-05-04 16:46 28.96483 -78.56598 35145 ft 456 kts 358°
2026-05-04 16:47 29.09078 -78.54708 35142 ft 454 kts 358°
2026-05-04 16:48 29.21562 -78.52824 35141 ft 454 kts 358°
2026-05-04 16:49 29.34124 -78.50917 35191 ft 455 kts 358°
2026-05-04 16:50 29.46651 -78.49021 35160 ft 455 kts 357°
2026-05-04 16:51 29.52817 -78.49175 35162 ft 439 kts 345°
2026-05-04 16:51 29.55859 -78.49513 35170 ft 439 kts 345°
2026-05-04 16:52 29.68021 -78.50827 35159 ft 440 kts 346°
2026-05-04 16:53 29.77201 -78.51815 35158 ft 441 kts 346°
2026-05-04 16:54 29.89426 -78.53142 35169 ft 442 kts 346°
2026-05-04 16:55 30.07850 -78.55140 35167 ft 444 kts 346°
2026-05-04 16:56 30.23535 -78.54685 35178 ft 460 kts 358°
2026-05-04 16:57 30.33023 -78.53333 35185 ft 460 kts 358°
2026-05-04 16:58 30.45742 -78.51483 35179 ft 461 kts 359°
2026-05-04 17:00 30.64750 -78.48345 35194 ft 459 kts 358°
2026-05-04 17:01 30.80500 -78.45799 35166 ft 457 kts 359°
2026-05-04 17:02 30.93144 -78.43735 35174 ft 459 kts 359°
2026-05-04 17:03 31.02622 -78.42185 35206 ft 461 kts 359°
2026-05-04 17:03 31.12176 -78.40626 35199 ft 462 kts 359°
2026-05-04 17:04 31.24913 -78.38540 35197 ft 463 kts 359°
2026-05-04 17:05 31.37705 -78.36424 35188 ft 464 kts
2026-05-04 17:06 31.47311 -78.34843 35189 ft 465 kts
2026-05-04 17:07 31.55844 -78.33439 35204 ft 465 kts
2026-05-04 17:07 31.63287 -78.32207 35176 ft 464 kts
2026-05-04 17:08 31.72917 -78.30598 35183 ft 466 kts
2026-05-04 17:09 31.79301 -78.29546 35191 ft 466 kts
2026-05-04 17:09 31.85731 -78.28477 35210 ft 466 kts
2026-05-04 17:10 32.01828 -78.25785 35198 ft 467 kts
2026-05-04 17:11 32.08228 -78.24563 35229 ft 469 kts
2026-05-04 17:12 32.17825 -78.22392 35174 ft 467 kts
2026-05-04 17:13 32.33788 -78.18914 35214 ft 468 kts
2026-05-04 17:14 32.46625 -78.16141 35201 ft 468 kts
2026-05-04 17:15 32.56201 -78.14053 35192 ft 468 kts
2026-05-04 17:16 32.68977 -78.11284 35196 ft 467 kts
2026-05-04 17:17 32.81786 -78.08473 35191 ft 467 kts
2026-05-04 17:18 32.94545 -78.05676 35186 ft 467 kts
2026-05-04 17:19 33.07309 -78.02878 35185 ft 467 kts
2026-05-04 17:20 33.20071 -78.00066 35165 ft 464 kts
2026-05-04 17:20 33.29572 -77.97969 35175 ft 465 kts
2026-05-04 17:21 33.42318 -77.95139 35181 ft 465 kts
2026-05-04 17:22 33.48700 -77.93721 35183 ft 466 kts
2026-05-04 17:23 33.61417 -77.90892 35171 ft 466 kts
2026-05-04 17:24 33.70942 -77.88767 35155 ft 463 kts
2026-05-04 17:25 33.83594 -77.85889 35158 ft 465 kts
2026-05-04 17:26 33.96283 -77.82627 35179 ft 465 kts
2026-05-04 17:27 34.12086 -77.78636 35166 ft 465 kts
2026-05-04 17:28 34.24724 -77.75437 35140 ft 463 kts
2026-05-04 17:29 34.43639 -77.70635 35162 ft 464 kts
2026-05-04 17:31 34.58264 -77.66190 35153 ft 476 kts 19°
2026-05-04 17:32 34.73121 -77.57307 35122 ft 475 kts 19°
2026-05-04 17:33 34.85008 -77.50205 35130 ft 477 kts 19°
2026-05-04 17:34 34.96894 -77.43050 35154 ft 477 kts 19°
2026-05-04 17:35 35.11794 -77.34067 35145 ft 476 kts 19°
2026-05-04 17:36 35.17701 -77.30504 35133 ft 476 kts 19°
2026-05-04 17:36 35.23639 -77.26902 35132 ft 476 kts 19°
2026-05-04 17:37 35.29574 -77.23290 35127 ft 476 kts 19°
2026-05-04 17:37 35.35529 -77.19674 35124 ft 477 kts 19°
2026-05-04 17:38 35.41448 -77.16081 35123 ft 477 kts 19°
2026-05-04 17:38 35.47402 -77.12456 35125 ft 477 kts 19°
2026-05-04 17:39 35.56332 -77.06988 35161 ft 478 kts 19°
2026-05-04 17:39 35.62272 -77.03344 35122 ft 475 kts 19°
2026-05-04 17:40 35.68155 -76.99737 35121 ft 476 kts 19°
2026-05-04 17:40 35.74078 -76.96097 35117 ft 476 kts 19°
2026-05-04 17:41 35.80012 -76.92453 35147 ft 476 kts 18°
2026-05-04 17:41 35.85948 -76.88796 35125 ft 476 kts 18°
2026-05-04 17:42 35.91831 -76.85180 35117 ft 474 kts 17°
2026-05-04 17:42 35.97863 -76.81894 35114 ft 470 kts 14°
2026-05-04 17:43 36.03912 -76.78923 35103 ft 468 kts 13°
2026-05-04 17:43 36.09936 -76.75929 35090 ft 466 kts 13°
2026-05-04 17:44 36.15939 -76.72837 35092 ft 467 kts 14°
2026-05-04 17:44 36.21934 -76.69696 35093 ft 468 kts 14°
2026-05-04 17:45 36.27910 -76.66578 35120 ft 468 kts 14°
2026-05-04 17:45 36.33913 -76.63460 35104 ft 467 kts 14°
2026-05-04 17:46 36.39879 -76.60357 35092 ft 467 kts 14°
2026-05-04 17:46 36.45877 -76.57228 35090 ft 467 kts 14°
2026-05-04 17:47 36.51865 -76.54101 35060 ft 463 kts 14°
2026-05-04 17:47 36.57773 -76.51011 35057 ft 463 kts 14°
2026-05-04 17:48 36.63732 -76.47888 35052 ft 464 kts 14°
2026-05-04 17:48 36.69698 -76.44755 35057 ft 465 kts 14°
2026-05-04 17:49 36.75674 -76.41615 35090 ft 466 kts 15°
2026-05-04 17:49 36.81613 -76.38489 35088 ft 466 kts 15°
2026-05-04 17:50 36.87600 -76.35325 35101 ft 467 kts 15°
2026-05-04 17:50 36.93596 -76.32153 35120 ft 466 kts 16°
2026-05-04 17:51 36.99552 -76.28996 35093 ft 464 kts 16°
2026-05-04 17:51 37.05503 -76.25837 35057 ft 464 kts 16°
2026-05-04 17:52 37.11404 -76.22695 35057 ft 464 kts 16°
2026-05-04 17:52 37.17351 -76.19534 35086 ft 464 kts 17°
2026-05-04 17:53 37.23285 -76.16374 35079 ft 463 kts 17°
2026-05-04 17:53 37.29213 -76.13208 35070 ft 462 kts 17°
2026-05-04 17:54 37.35099 -76.10055 35065 ft 462 kts 17°
2026-05-04 17:54 37.41005 -76.06888 35066 ft 460 kts 17°
2026-05-04 17:55 37.46890 -76.03730 35061 ft 459 kts 17°
2026-05-04 17:55 37.52780 -76.00574 35062 ft 459 kts 17°
2026-05-04 17:56 37.58631 -75.97414 35061 ft 460 kts 17°
2026-05-04 17:56 37.64235 -75.93348 35068 ft 468 kts 27°
2026-05-04 17:57 37.69697 -75.88824 35069 ft 468 kts 27°
2026-05-04 17:57 37.75144 -75.84298 35069 ft 469 kts 27°
2026-05-04 17:58 37.80563 -75.79798 35098 ft 468 kts 27°
2026-05-04 17:58 37.86017 -75.75270 35084 ft 467 kts 27°
2026-05-04 17:59 37.91424 -75.70758 35075 ft 467 kts 27°
2026-05-04 18:00 37.99563 -75.63951 35055 ft 466 kts 27°
2026-05-04 18:00 38.04972 -75.59434 35052 ft 463 kts 27°
2026-05-04 18:01 38.10349 -75.54921 35051 ft 462 kts 27°
2026-05-04 18:01 38.15685 -75.50437 35045 ft 462 kts 27°
2026-05-04 18:02 38.23730 -75.43668 35058 ft 461 kts 25°
2026-05-04 18:02 38.29484 -75.40484 35042 ft 444 kts
2026-05-04 18:03 38.35483 -75.39132 35028 ft 440 kts
2026-05-04 18:03 38.41535 -75.37854 35026 ft 441 kts
2026-05-04 18:04 38.47609 -75.36552 35052 ft 441 kts
2026-05-04 18:05 38.56658 -75.34623 35037 ft 441 kts
2026-05-04 18:05 38.62709 -75.33334 35033 ft 440 kts
2026-05-04 18:06 38.71792 -75.31396 35029 ft 440 kts
2026-05-04 18:06 38.77742 -75.29598 35020 ft 449 kts 16°
2026-05-04 18:07 38.83334 -75.25845 35019 ft 455 kts 23°
2026-05-04 18:07 38.88878 -75.21900 35040 ft 455 kts 23°
2026-05-04 18:08 38.94427 -75.17961 35031 ft 454 kts 23°
2026-05-04 18:08 38.99920 -75.14050 35022 ft 454 kts 23°
2026-05-04 18:09 39.10985 -75.06143 35047 ft 454 kts 24°
2026-05-04 18:10 39.16518 -75.02187 35022 ft 454 kts 23°
2026-05-04 18:10 39.22018 -74.98249 35035 ft 455 kts 23°
2026-05-04 18:11 39.27478 -74.94064 35047 ft 460 kts 30°
2026-05-04 18:11 39.32708 -74.89284 35032 ft 460 kts 30°
2026-05-04 18:12 39.37915 -74.84554 35020 ft 459 kts 30°
2026-05-04 18:12 39.43145 -74.79793 35015 ft 459 kts 30°
2026-05-04 18:13 39.48373 -74.75011 35026 ft 459 kts 30°
2026-05-04 18:14 39.56159 -74.67877 35015 ft 457 kts 30°
2026-05-04 18:14 39.61353 -74.63108 35012 ft 457 kts 30°
2026-05-04 18:15 39.71695 -74.53586 35005 ft 456 kts 30°
2026-05-04 18:16 39.76872 -74.48811 35000 ft 456 kts 30°
2026-05-04 18:16 39.82056 -74.44022 34998 ft 456 kts 30°
2026-05-04 18:17 39.89686 -74.36923 34861 ft 434 kts 30°
2026-05-04 18:17 39.94520 -74.32425 34114 ft 426 kts 30°
2026-05-04 18:18 39.96932 -74.30187 33615 ft 424 kts 30°
2026-05-04 18:18 39.99330 -74.27961 33041 ft 423 kts 30°
2026-05-04 18:18 40.01725 -74.25733 32426 ft 423 kts 30°
2026-05-04 18:18 40.04120 -74.23503 31794 ft 423 kts 30°
2026-05-04 18:19 40.08910 -74.19029 30574 ft 423 kts 30°
2026-05-04 18:19 40.11312 -74.16780 29912 ft 424 kts 30°
2026-05-04 18:19 40.13713 -74.14528 29126 ft 425 kts 30°
2026-05-04 18:20 40.16087 -74.12297 28319 ft 427 kts 30°
2026-05-04 18:20 40.18504 -74.10029 27484 ft 429 kts 30°
2026-05-04 18:20 40.20935 -74.07750 27085 ft 430 kts 30°
2026-05-04 18:20 40.23377 -74.05461 26937 ft 433 kts 30°
2026-05-04 18:21 40.25005 -74.03933 26980 ft 434 kts 30°
2026-05-04 18:21 40.27466 -74.01621 26973 ft 435 kts 30°
2026-05-04 18:21 40.29924 -73.99308 26982 ft 435 kts 30°
2026-05-04 18:21 40.32377 -73.96995 26973 ft 434 kts 30°
2026-05-04 18:22 40.34880 -73.94810 26967 ft 429 kts 24°
2026-05-04 18:22 40.37550 -73.93087 26979 ft 426 kts 20°
2026-05-04 18:22 40.40242 -73.91436 26974 ft 426 kts 20°
2026-05-04 18:22 40.42897 -73.89802 26982 ft 426 kts 20°
2026-05-04 18:23 40.45583 -73.88141 26978 ft 426 kts 20°
2026-05-04 18:23 40.48271 -73.86474 26969 ft 427 kts 20°
2026-05-04 18:23 40.50960 -73.84806 26966 ft 427 kts 20°
2026-05-04 18:23 40.53644 -73.83137 26963 ft 427 kts 20°
2026-05-04 18:24 40.56325 -73.81467 26966 ft 427 kts 20°
2026-05-04 18:24 40.58989 -73.79808 26955 ft 415 kts 20°
2026-05-04 18:24 40.61542 -73.78211 26939 ft 398 kts 20°
2026-05-04 18:24 40.63835 -73.76253 26942 ft 394 kts 38°
2026-05-04 18:25 40.65714 -73.73678 26944 ft 385 kts 41°
2026-05-04 18:25 40.67521 -73.71076 26934 ft 382 kts 42°
2026-05-04 18:25 40.69295 -73.68470 26931 ft 382 kts 42°
2026-05-04 18:25 40.71080 -73.65831 26941 ft 390 kts 42°
2026-05-04 18:26 40.72895 -73.63145 26734 ft 393 kts 42°
2026-05-04 18:26 40.74754 -73.60404 25689 ft 407 kts 43°
2026-05-04 18:26 40.76652 -73.57622 24629 ft 420 kts 43°
2026-05-04 18:26 40.78642 -73.54712 23648 ft 430 kts 43°
2026-05-04 18:27 40.80648 -73.51765 23144 ft 434 kts 43°
2026-05-04 18:27 40.82661 -73.48789 22928 ft 435 kts 43°
2026-05-04 18:27 40.84679 -73.45800 22950 ft 436 kts 43°
2026-05-04 18:27 40.86711 -73.42792 22948 ft 436 kts 43°
2026-05-04 18:28 40.88710 -73.39842 22945 ft 436 kts 43°
2026-05-04 18:28 40.90741 -73.36851 22949 ft 436 kts 43°
2026-05-04 18:28 40.92770 -73.33860 22950 ft 436 kts 43°
2026-05-04 18:28 40.94796 -73.30865 22949 ft 436 kts 43°
2026-05-04 18:29 40.96815 -73.27873 22948 ft 436 kts 43°
2026-05-04 18:29 40.98839 -73.24871 22938 ft 435 kts 43°
2026-05-04 18:29 41.00830 -73.21918 22940 ft 435 kts 43°
2026-05-04 18:29 41.02844 -73.18928 22940 ft 435 kts 43°
2026-05-04 18:30 41.06882 -73.12925 22932 ft 435 kts 43°
2026-05-04 18:30 41.08883 -73.09941 22934 ft 427 kts 43°
2026-05-04 18:30 41.10823 -73.07044 22935 ft 424 kts 43°
2026-05-04 18:31 41.12781 -73.04117 22945 ft 423 kts 43°
2026-05-04 18:31 41.14732 -73.01198 22954 ft 423 kts 43°
2026-05-04 18:31 41.16687 -72.98272 22942 ft 422 kts 43°
2026-05-04 18:31 41.18638 -72.95354 22944 ft 422 kts 43°
2026-05-04 18:32 41.20543 -72.92387 22943 ft 424 kts 49°
2026-05-04 18:32 41.22123 -72.89034 22869 ft 429 kts 58°
2026-05-04 18:32 41.23451 -72.85544 22759 ft 429 kts 59°
2026-05-04 18:32 41.24804 -72.82005 22655 ft 428 kts 59°
2026-05-04 18:33 41.26157 -72.78475 22548 ft 428 kts 59°
2026-05-04 18:33 41.27506 -72.74952 22456 ft 427 kts 59°
2026-05-04 18:33 41.28851 -72.71432 22355 ft 427 kts 59°
2026-05-04 18:33 41.30191 -72.67916 22256 ft 426 kts 59°
2026-05-04 18:34 41.31530 -72.64398 22153 ft 426 kts 59°
2026-05-04 18:34 41.32868 -72.60879 22047 ft 425 kts 59°
2026-05-04 18:34 41.34199 -72.57372 21951 ft 424 kts 59°
2026-05-04 18:34 41.35528 -72.53870 21849 ft 423 kts 59°
2026-05-04 18:35 41.36839 -72.50419 21748 ft 423 kts 59°
2026-05-04 18:35 41.38166 -72.46914 21652 ft 422 kts 59°
2026-05-04 18:35 41.39486 -72.43427 21555 ft 422 kts 59°
2026-05-04 18:35 41.40807 -72.39939 21455 ft 422 kts 59°
2026-05-04 18:36 41.42123 -72.36453 21357 ft 421 kts 59°
2026-05-04 18:36 41.43433 -72.32966 21261 ft 420 kts 59°
2026-05-04 18:36 41.44743 -72.29477 21160 ft 420 kts 59°
2026-05-04 18:36 41.46055 -72.25987 21064 ft 420 kts 59°
2026-05-04 18:37 41.47363 -72.22504 20967 ft 419 kts 59°
2026-05-04 18:37 41.48646 -72.19067 20870 ft 419 kts 60°
2026-05-04 18:37 41.49932 -72.15577 20743 ft 418 kts 60°
2026-05-04 18:37 41.51211 -72.12079 20629 ft 418 kts 60°
2026-05-04 18:38 41.52482 -72.08585 20513 ft 418 kts 60°
2026-05-04 18:38 41.53748 -72.05095 20401 ft 417 kts 60°
2026-05-04 18:38 41.55012 -72.01617 20282 ft 417 kts 60°
2026-05-04 18:38 41.56250 -71.98114 20175 ft 417 kts 62°
2026-05-04 18:39 41.57376 -71.94597 20067 ft 417 kts 64°
2026-05-04 18:39 41.58448 -71.90988 19951 ft 417 kts 65°
2026-05-04 18:39 41.59484 -71.87367 19835 ft 416 kts 66°
2026-05-04 18:39 41.60514 -71.83750 19722 ft 416 kts 66°
2026-05-04 18:40 41.61546 -71.80143 19605 ft 415 kts 66°
2026-05-04 18:40 41.62585 -71.76545 19492 ft 415 kts 65°
2026-05-04 18:40 41.63623 -71.72995 19353 ft 414 kts 65°
2026-05-04 18:40 41.64684 -71.69406 19262 ft 414 kts 65°
2026-05-04 18:41 41.65734 -71.65860 19151 ft 404 kts 65°
2026-05-04 18:41 41.66748 -71.62423 19019 ft 390 kts 65°
2026-05-04 18:41 41.67722 -71.59097 18892 ft 377 kts 65°
2026-05-04 18:41 41.68669 -71.55856 18600 ft 370 kts 65°
2026-05-04 18:42 41.69597 -71.52675 18133 ft 370 kts 66°
2026-05-04 18:42 41.70527 -71.49488 17733 ft 366 kts 66°
2026-05-04 18:42 41.71454 -71.46321 17287 ft 363 kts 66°
2026-05-04 18:42 41.72404 -71.43197 16825 ft 360 kts 61°
2026-05-04 18:43 41.73614 -71.40284 16379 ft 356 kts 56°
2026-05-04 18:43 41.74838 -71.37443 15944 ft 354 kts 57°
2026-05-04 18:43 41.76063 -71.34587 15506 ft 352 kts 57°
2026-05-04 18:43 41.77285 -71.31732 15060 ft 351 kts 57°
2026-05-04 18:44 41.78481 -71.28930 14633 ft 350 kts 57°
2026-05-04 18:44 41.79282 -71.27047 14339 ft 349 kts 57°
2026-05-04 18:44 41.80889 -71.23267 13806 ft 345 kts 57°
2026-05-04 18:44 41.82043 -71.20537 13285 ft 331 kts 57°
2026-05-04 18:45 41.83166 -71.17878 12878 ft 327 kts 57°
2026-05-04 18:45 41.84273 -71.15269 12485 ft 326 kts 57°
2026-05-04 18:45 41.85395 -71.12633 12107 ft 325 kts 57°
2026-05-04 18:45 41.86518 -71.10017 11883 ft 318 kts 56°
2026-05-04 18:46 41.87634 -71.07439 11771 ft 320 kts 56°
2026-05-04 18:46 41.88756 -71.04860 11640 ft 319 kts 56°
2026-05-04 18:46 41.89860 -71.02316 11490 ft 319 kts 56°
2026-05-04 18:46 41.90974 -70.99739 11341 ft 318 kts 56°
2026-05-04 18:47 41.92089 -70.97155 11205 ft 318 kts 56°
2026-05-04 18:47 41.93196 -70.94581 11061 ft 318 kts 56°
2026-05-04 18:47 41.94288 -70.92040 10921 ft 317 kts 56°
2026-05-04 18:47 41.95392 -70.89474 10777 ft 317 kts 56°
2026-05-04 18:48 41.96494 -70.86910 10621 ft 317 kts 57°
2026-05-04 18:48 41.97601 -70.84334 10484 ft 319 kts 57°
2026-05-04 18:48 41.98707 -70.81754 10342 ft 319 kts 57°
2026-05-04 18:48 41.99812 -70.79168 10227 ft 318 kts 57°
2026-05-04 18:49 42.00940 -70.76609 10044 ft 315 kts 51°
2026-05-04 18:49 42.02320 -70.74355 9750 ft 311 kts 43°
2026-05-04 18:49 42.03762 -70.72201 9444 ft 309 kts 43°
2026-05-04 18:49 42.05186 -70.70085 9159 ft 309 kts 43°
2026-05-04 18:50 42.06626 -70.67942 8866 ft 307 kts 43°
2026-05-04 18:50 42.08059 -70.65805 8571 ft 307 kts 44°
2026-05-04 18:50 42.09504 -70.63695 8270 ft 304 kts 38°
2026-05-04 18:50 42.11191 -70.62035 7993 ft 296 kts 22°
2026-05-04 18:51 42.13077 -70.61016 7717 ft 288 kts
2026-05-04 18:51 42.15008 -70.60461 7447 ft 287 kts
2026-05-04 18:51 42.16963 -70.59920 7182 ft 287 kts
2026-05-04 18:51 42.18922 -70.59377 6898 ft 287 kts
2026-05-04 18:52 42.20880 -70.58830 6626 ft 287 kts
2026-05-04 18:52 42.22832 -70.58281 6353 ft 286 kts
2026-05-04 18:52 42.24786 -70.57734 6065 ft 286 kts
2026-05-04 18:52 42.26713 -70.57195 5791 ft 285 kts
2026-05-04 18:53 42.28657 -70.56651 5519 ft 284 kts
2026-05-04 18:53 42.30603 -70.56254 5249 ft 278 kts 353°
2026-05-04 18:53 42.32465 -70.56617 5043 ft 264 kts 335°
2026-05-04 18:53 42.34050 -70.57645 5001 ft 241 kts 318°
2026-05-04 18:54 42.35248 -70.59029 5004 ft 220 kts 308°
2026-05-04 18:54 42.36340 -70.60463 5020 ft 220 kts 309°
2026-05-04 18:54 42.37438 -70.61910 5027 ft 221 kts 309°
2026-05-04 18:54 42.38542 -70.63362 5002 ft 221 kts 309°
2026-05-04 18:55 42.39630 -70.64796 5001 ft 220 kts 308°
2026-05-04 18:55 42.41823 -70.67684 4993 ft 220 kts 309°
2026-05-04 18:55 42.42921 -70.69124 4979 ft 218 kts 309°
2026-05-04 18:56 42.44003 -70.70542 4616 ft 216 kts 309°
2026-05-04 18:56 42.45085 -70.71966 4178 ft 217 kts 309°
2026-05-04 18:56 42.46167 -70.73394 3778 ft 217 kts 309°
2026-05-04 18:56 42.47245 -70.74818 3361 ft 216 kts 309°
2026-05-04 18:57 42.48328 -70.76247 3014 ft 215 kts 309°
2026-05-04 18:57 42.49391 -70.77652 2996 ft 217 kts 309°
2026-05-04 18:57 42.50478 -70.79087 2997 ft 217 kts 310°
2026-05-04 18:57 42.51592 -70.80482 2992 ft 221 kts 318°
2026-05-04 18:58 42.53030 -70.81306 2996 ft 233 kts 343°
2026-05-04 18:58 42.54681 -70.81145 2996 ft 248 kts 11°
2026-05-04 18:58 42.56323 -70.80366 3005 ft 249 kts 14°
2026-05-04 18:58 42.57951 -70.79570 2997 ft 247 kts 14°
2026-05-04 18:59 42.59552 -70.78767 3005 ft 249 kts 15°
2026-05-04 18:59 42.61168 -70.77942 2997 ft 245 kts 15°
2026-05-04 18:59 42.62702 -70.77145 3004 ft 226 kts 15°
2026-05-04 18:59 42.64120 -70.76400 3027 ft 212 kts 14°
2026-05-04 19:00 42.65491 -70.75708 2993 ft 207 kts
2026-05-04 19:00 42.66838 -70.75746 2985 ft 187 kts 330°
2026-05-04 19:00 42.67737 -70.76829 2986 ft 168 kts 290°
2026-05-04 19:00 42.67802 -70.78318 2984 ft 160 kts 250°
2026-05-04 19:01 42.67246 -70.79603 2990 ft 161 kts 237°
2026-05-04 19:01 42.66581 -70.80833 2988 ft 161 kts 236°
2026-05-04 19:01 42.65912 -70.82052 2987 ft 161 kts 236°
2026-05-04 19:01 42.65236 -70.83271 2986 ft 161 kts 236°
2026-05-04 19:02 42.64567 -70.84494 2987 ft 161 kts 236°
2026-05-04 19:02 42.63902 -70.85719 2986 ft 161 kts 236°
2026-05-04 19:02 42.63230 -70.86943 2987 ft 162 kts 236°
2026-05-04 19:02 42.62367 -70.87920 2987 ft 169 kts 211°
2026-05-04 19:03 42.61239 -70.88486 2990 ft 171 kts 206°
2026-05-04 19:03 42.60133 -70.89021 2980 ft 171 kts 206°
2026-05-04 19:03 42.59022 -70.89560 2982 ft 169 kts 206°
2026-05-04 19:03 42.57912 -70.90101 2985 ft 169 kts 206°
2026-05-04 19:04 42.56805 -70.90640 2990 ft 169 kts 207°
2026-05-04 19:04 42.55704 -70.91177 2989 ft 168 kts 207°
2026-05-04 19:04 42.54600 -70.91715 2987 ft 169 kts 206°
2026-05-04 19:04 42.53491 -70.92255 2988 ft 169 kts 206°
2026-05-04 19:05 42.52389 -70.92791 2981 ft 166 kts 207°
2026-05-04 19:05 42.51315 -70.93312 2852 ft 162 kts 206°
2026-05-04 19:05 42.50260 -70.93826 2679 ft 160 kts 206°
2026-05-04 19:05 42.49228 -70.94328 2492 ft 159 kts 206°
2026-05-04 19:06 42.48190 -70.94833 2273 ft 158 kts 206°
2026-05-04 19:06 42.47152 -70.95338 2068 ft 158 kts 206°
2026-05-04 19:06 42.46169 -70.95812 1860 ft 143 kts 207°
2026-05-04 19:06 42.45254 -70.96256 1675 ft 138 kts 207°
2026-05-04 19:07 42.44351 -70.96696 1482 ft 136 kts 208°
2026-05-04 19:07 42.43474 -70.97122 1317 ft 133 kts 208°
2026-05-04 19:07 42.42605 -70.97545 1135 ft 134 kts 206°
2026-05-04 19:07 42.41723 -70.97972 943 ft 133 kts 206°
2026-05-04 19:08 42.40854 -70.98394 786 ft 133 kts 207°
2026-05-04 19:08 42.39970 -70.98824 623 ft 136 kts 207°
2026-05-04 19:08 42.39092 -70.99247 422 ft 132 kts 207°
2026-05-04 19:08 42.38225 -70.99668 250 ft 134 kts 206°
2026-05-04 19:09 42.37353 -71.00091 74 ft 133 kts 204°
2026-05-04 19:09 42.36566 -71.00474 28 ft 93 kts 199°
2026-05-04 19:09 42.36219 -71.00643 30 ft 27 kts 203°
2026-05-04 19:09 42.36157 -71.00825 24 ft 20 kts 289°
2026-05-04 19:10 42.36175 -71.00885 29 ft 0 kts 292°
2026-05-04 19:10 42.36176 -71.00890 28 ft 3 kts 292°
2026-05-04 19:10 42.36204 -71.00980 28 ft 13 kts 293°
2026-05-04 19:10 42.36244 -71.01100 27 ft 14 kts 294°
2026-05-04 19:11 42.36293 -71.01218 28 ft 15 kts 301°
2026-05-04 19:11 42.36338 -71.01320 28 ft 0 kts 301°
2026-05-04 19:11 42.36344 -71.01331 27 ft 0 kts 301°
2026-05-04 19:12 42.36380 -71.01430 23 ft 10 kts 288°
2026-05-04 19:12 42.36414 -71.01519 23 ft 11 kts 301°
2026-05-04 19:13 42.36419 -71.01600 26 ft 6 kts 236°
2026-05-04 19:13 42.36397 -71.01617 23 ft 2 kts 227°
2026-05-04 19:13 42.36394 -71.01620 23 ft 1 kts 219°
2026-05-04 19:13 42.36390 -71.01624 23 ft 0 kts 219°